Hourly Data Report for May 18, 2021

WIARTON A
ONTARIO
Current Station Operator: NAVCAN

44°44'39.000" N
81°06'31.000" W
221.90 m
6119499
71633
YVV

Download Data

Hourly Data (May 2021)
Hourly Data Report for May 18, 2021
TIME
LST
Temp Definition
°C
Dew Point Definition
°C
Rel Hum Definition
%
Precip. Amount Definition
mm

Wind Dir Definition
10's deg

Wind Spd Definition
km/h
Visibility Definition
km
Stn Press Definition
kPa
Hmdx Definition


Wind Chill Definition


Weather Definition


00:00 10.4 8.1 85   12 13 24.1 99.78     LegendNANA
01:00 9.4 7.9 90   14 10 24.1 99.78     Clear
02:00 10.9 7.3 78   16 9 24.1 99.79     LegendNANA
03:00 11.4 7.0 74   17 10 24.1 99.81     LegendNANA
04:00 11.1 6.8 74   18 9 24.1 99.84     Clear
05:00 11.2 7.0 75   21 9 24.1 99.89     LegendNANA
06:00 12.1 8.6 79   20 10 24.1 99.95     LegendNANA
07:00 15.6 9.2 65   23 17 24.1 100.00     Mainly Clear
08:00 16.0 9.3 64   26 14 24.1 100.03     LegendNANA
09:00 16.6 10.2 66   27 10 24.1 100.06     LegendNANA
10:00 18.7 11.1 61   23 7 24.1 100.05     Clear
11:00 20.8 10.8 52   26 10 24.1 100.04     LegendNANA
12:00 21.3 9.7 47   26 11 24.1 100.01     LegendNANA
13:00 20.9 10.3 50   26 13 24.1 100.03     Mainly Clear
14:00 20.3 9.2 48   27 13 24.1 100.02     LegendNANA
15:00 21.2 9.1 45   25 10 24.1 99.97     LegendNANA
16:00 21.7 8.2 41   27 7 24.1 99.91     Clear
17:00 22.2 6.8 37   27 11 24.1 99.90     LegendNANA
18:00 21.2 6.4 38   28 7 24.1 99.87     LegendNANA
19:00 20.8 6.6 39   28 4 24.1 99.86     Clear
20:00 18.3 9.4 56   24 6 24.1 99.87     LegendNANA
21:00 13.7 10.3 80   9 7 24.1 99.90     LegendNANA
22:00 11.7 9.1 84   10 8 24.1 99.91     Clear
23:00 11.4 8.6 83   12 7 24.1 99.91     LegendNANA

Notes on Data Quality.

Legend

  • E = Estimated
  • M = Missing
  • NA = Not Available*
  • [empty] = Indicates an unobserved value
Date modified: